Location: Home
(42.5358°N, 72.7383°W)
Time: 06:05:27
(UTC-05:00)

Transit 4A - Pass Details

Date: 06 December 2021
Orbit: 863 x 981 km, 66.8° (Epoch: 26 January)

Event Time Altitude Azimuth Distance (km) Brightness Sun altitude
Rises 17:02:43 0° 166° (SSE) 3,440 11.0 -8.2°
Reaches altitude 10° 17:05:48 10° 150° (SSE) 2,519 10.1 -8.7°
Maximum altitude 17:09:53 20° 105° (ESE) 1,928 9.1 -9.4°
Enters shadow 17:13:19 13° 65° (ENE) 2,393 9.4 -10.0°
